Simultaneous Nadir Overpasses (SNOs) Predictions

Prediction of SNOs between LANDSAT-8 and METOP-A Satellite Orbit:

Table of predicted SNOs for the next 14.0 days since TLE Epoch: 12/26/2020
Index Date (LANDSAT-8) Time (LANDSAT-8) Lat,Lon (LANDSAT-8) SZA (LANDSAT-8 ) Date (METOP-A) Time (METOP-A) Lat,Lon (METOP-A) SZA (METOP-A ) Distance(km) Time Diff (sec)
1 12/27/2020 09:53:37 -81.43,-103.01 72.91 12/27/2020 09:52:25 -81.44,-103.11 72.95 1.89 72
2 12/27/2020 10:43:03 81.44, 64.73 107.10 12/27/2020 10:43:05 81.43, 64.55 107.08 2.99 2
3 12/27/2020 11:32:25 -81.52,-125.74 72.65 12/27/2020 11:33:39 -81.36,-125.49 72.70 18.20 74
4 12/30/2020 05:27:51 -81.44, -36.41 73.09 12/30/2020 05:26:47 -81.43, -36.37 73.12 1.22 64
5 12/30/2020 06:17:18 81.43, 130.92 106.87 12/30/2020 06:17:28 81.44, 130.87 106.88 1.18 10
6 01/02/2021 01:02:06 -81.43, 29.77 73.38 01/02/2021 01:01:10 -81.43, 29.97 73.38 3.33 56
7 01/02/2021 01:51:32 81.43,-162.54 106.63 01/02/2021 01:51:50 81.43,-162.43 106.64 1.87 18
8 01/04/2021 20:36:20 -81.43, 96.29 73.69 01/04/2021 20:35:33 -81.43, 96.28 73.71 0.12 47
9 01/04/2021 21:25:46 81.43, -96.04 106.32 01/04/2021 21:26:13 81.43, -96.15 106.31 1.96 27
10 01/07/2021 16:10:33 -81.43, 162.77 74.05 01/07/2021 16:09:55 -81.43, 162.58 74.09 3.14 38



Historial Predications of SNOs between LANDSAT-8 and METOP-A
